Weather Roundup
Issued by NWS Chicago, IL

Home | Current Version | Previous Version | Text Only | Print | Product List | Glossary On
Versions: 1 2 3 4 5 6 7 8 9 10 11 12 13 14 15 16 17 18 19 20 21 22 23 24 25 26 27 28 29 30 31 32 33 34 35 36 37 38 39 40 41 42 43 44 45 46 47 48 49 50
000
NZUS59 KLOT 271510
HRRLOT

CHICAGO AREA WEATHER ROUNDUP
NATIONAL WEATHER SERVICE CHICAGO/ROMEOVILLE IL
1000 AM CDT WED AUG 27 2014

NOTE: "FAIR" INDICATES FEW OR NO CLOUDS BELOW 12,000 FEET WITH NO
SIGNIFICANT WEATHER AND/OR OBSTRUCTIONS TO VISIBILITY.

* THESE STATIONS ARE NOT UNDER NWS QUALITY CONTROL. THEY ALSO MAY NOT
  REPORT WEATHER SUCH AS PRECIPITATION OR FOG.

ILZ005-006-012>014-019>023-271600-
NORTHEAST ILLINOIS

CITY           SKY/WX    TMP DP  RH WIND       PRES   REMARKS
OHARE          PTSUNNY   75  59  57 NE7       30.14S
MIDWAY         PTSUNNY   76  63  64 E5        30.14S
AURORA         PTSUNNY   74  63  68 CALM      30.16R
LANSING*       SUNNY     74  62  66 NE6       30.15R
JOLIET*        MOSUNNY   74  62  67 CALM      30.16R
WAUKEGAN       MOSUNNY   71  62  73 NE8       30.14S
DUPAGE AIRPORT MOSUNNY   76  64  66 VRB3      30.15R
WHEELING       MOSUNNY   74  64  71 E7        30.16S
KANKAKEE*      SUNNY     75  64  67 E7        30.14S
MORRIS*        MOSUNNY   74  66  76 E3        30.14S
LEWIS AIRPORT* MOSUNNY   73  64  71 SE3       30.15R
NORTHERLY IS     N/A     72  62  71 NE6         N/A
$$

WIZ051-052-058>065-066-070>072-271600-
SOUTHEAST WISCONSIN

CITY           SKY/WX    TMP DP  RH WIND       PRES   REMARKS
MILWAUKEE      PTSUNNY   69  63  81 NE9       30.16S
KENOSHA*       SUNNY     72  63  73 VRB3      30.16S
RACINE*        MOSUNNY   70  63  78 N8        30.18R
BURLINGTON     SUNNY     69  58  67 CALM      30.17R
WAUKESHA       MOSUNNY   66  59  77 NE3       30.18S
WEST BEND      PTSUNNY   68  59  73 NE9       30.18S
$$

INZ001>003-010>013-019-020-271600-
NORTHWEST INDIANA

CITY           SKY/WX    TMP DP  RH WIND       PRES   REMARKS
GARY*          MOSUNNY   75  63  64 NE6       30.16R
MICHIGAN CITY* NOT AVBL
RENSSELAER*    NOT AVBL
VALPARAISO     SUNNY     73  61  65 E7        30.15S
$$

LMZ740>746-271600-
SOUTHERN LAKE MICHIGAN

STATION/POSITION TIME  SKY/WX   TEMP WIND        PRES    VSBY
                                AIR  DIR/SP/G
                 (UTC)          (F)  (DEG/KT/KT) (MB)    (MI)
HARRISON CRIB    1500            70   60/  6/  7   N/A
BURNHAM HARBOR   1500            72   50/  5/  8   N/A
CALUMET HARBOR   1500            71   40/  5/  7 1019.7R
BURNS HARBOR     NOT AVBL
MICHIGAN CITY    1500            69   20/  9/ 10   N/A
$$

ABBREVIATIONS USED IN REMARKS
   TC - TEMPERATURE IN CELSIUS
  WCI - WIND CHILL INDEX
   HX - HEAT INDEX
  VSB - VISIBILITY
$$



USA.gov is the U.S. government's official web portal to all federal, state and local government web resources and services.